Weather History for Aurora, NE

Change the Weather History Date:

Wednesday, October 12, 2011

  Actual Average Record
Temperature  
Mean Temperature 60 °F -  
Max Temperature 69 °F 68 °F 88 °F (1989)
Min Temperature 50 °F 41 °F 27 °F (1977)
Degree Days  
Heating Degree Days 6    
Growing Degree Days 10 (Base 50)    
Moisture  
Dew Point 49 °F    
Average Humidity 77    
Maximum Humidity 100    
Minimum Humidity 40    
Precipitation  
Precipitation 0.01 in - - ()
Sea Level Pressure  
Sea Level Pressure 29.77 in    
Wind  
Wind Speed 7 mph (NW)    
Max Wind Speed 24 mph    
Max Gust Speed 32 mph    
Visibility 6 miles    
Events Fog , Thunderstorm    
Averages and records for this station are not official NWS values.
T = Trace of Precipitation, MM = Missing Value Source: NWS Daily Summary

Daily Weather History Graph

Daily Weather History Graph

Search for Another Location

Airport:

Trip Planner

Search our weather history database for the weather conditions in past years. The results will help you decide how hot, cold, wet, or windy it might be!

Date:

Astronomy

Oct. 12, 2011 Rise Set
Actual Time 7:39 AM CDT 6:56 PM CDT
Civil Twilight 7:12 AM CDT 7:24 PM CDT
Nautical Twilight 6:40 AM CDT 7:55 PM CDT
Astronomical Twilight 6:08 AM CDT 8:27 PM CDT
Moon 6:58 PM CDT (10/12) 8:16 AM CDT (10/12)
Length of Visible Light 12h 11m
Length of Day
11h 16m
Full, 100% of the Moon is Illuminated
Oct 12
Full
Oct 19
Last Quarter
Oct 26
New
Nov 2
First Quarter
Nov 10
Full

Hourly Weather History & Observations

Time (CDT) Temp. Dew Point Humidity Pressure Visibility Wind Dir Wind Speed Gust Speed Precip Events Conditions
12:15 AM 59.0 °F 57.2 °F 94% 29.72 in 10.0 mi SE 5.8 mph - N/A Thunderstorm Overcast
12:35 AM 59.0 °F 57.2 °F 94% 29.71 in 10.0 mi SE 5.8 mph - N/A Thunderstorm Thunderstorm
1:15 AM 59.0 °F 59.0 °F 100% 29.72 in 10.0 mi Calm Calm - N/A Thunderstorm Thunderstorm
1:35 AM 59.0 °F 59.0 °F 100% 29.71 in 10.0 mi Calm Calm - N/A Thunderstorm Overcast
1:55 AM 59.0 °F 57.2 °F 94% 29.72 in 10.0 mi ESE 3.5 mph - N/A   Mostly Cloudy
2:35 AM 55.4 °F 55.4 °F 100% 29.72 in 7.0 mi Calm Calm - N/A   Scattered Clouds
2:55 AM 53.6 °F 53.6 °F 100% 29.71 in 4.0 mi Calm Calm - N/A   Clear
3:15 AM 53.6 °F 51.8 °F 94% 29.72 in 0.5 mi Calm Calm - N/A Fog Fog
3:35 AM 51.8 °F 51.8 °F 100% 29.71 in 0.2 mi Calm Calm - N/A Fog Fog
3:55 AM 51.8 °F 51.8 °F 100% 29.70 in 0.2 mi Calm Calm - N/A Fog Fog
4:15 AM 50.0 °F 50.0 °F 100% 29.70 in 0.2 mi Calm Calm - N/A Fog Fog
4:35 AM 51.8 °F 51.8 °F 100% 29.70 in 0.2 mi Calm Calm - N/A Fog Fog
4:55 AM 50.0 °F 50.0 °F 100% 29.70 in 0.2 mi Calm Calm - N/A Fog Fog
5:15 AM 50.0 °F 50.0 °F 100% 29.70 in 0.2 mi Calm Calm - N/A Fog Fog
5:35 AM 51.8 °F 51.8 °F 100% 29.70 in 0.2 mi Calm Calm - N/A Fog Fog
5:55 AM 53.6 °F 53.6 °F 100% 29.70 in 0.2 mi Calm Calm - 0.01 in Fog Fog
6:15 AM 53.6 °F 53.6 °F 100% 29.70 in 0.2 mi Calm Calm - N/A Fog Fog
6:35 AM 51.8 °F 51.8 °F 100% 29.70 in 0.5 mi Calm Calm - N/A Fog Fog
6:55 AM 53.6 °F 53.6 °F 100% 29.71 in 0.5 mi Calm Calm - N/A Fog Fog
7:35 AM 51.8 °F 51.8 °F 100% 29.70 in 0.2 mi Calm Calm - N/A Fog Fog
7:55 AM 50.0 °F 50.0 °F 100% 29.71 in 0.5 mi West 3.5 mph - N/A Fog Fog
8:15 AM 50.0 °F 50.0 °F 100% 29.71 in 0.2 mi West 4.6 mph - N/A Fog Fog
8:35 AM 50.0 °F 50.0 °F 100% 29.72 in 0.2 mi West 5.8 mph - N/A Fog Fog
8:55 AM 50.0 °F 50.0 °F 100% 29.74 in 0.2 mi West 5.8 mph - N/A Fog Fog
9:15 AM 50.0 °F 50.0 °F 100% 29.74 in 0.5 mi West 11.5 mph - N/A Fog Fog
9:35 AM 51.8 °F 51.8 °F 100% 29.75 in 0.2 mi WNW 6.9 mph - N/A Fog Fog
10:15 AM 51.8 °F 51.8 °F 100% 29.76 in 0.5 mi WNW 9.2 mph - N/A Fog Fog
10:35 AM 53.6 °F 53.6 °F 100% 29.76 in 1.5 mi NW 8.1 mph - N/A   Overcast
10:55 AM 53.6 °F 53.6 °F 100% 29.77 in 3.0 mi NW 12.7 mph - N/A   Overcast
11:15 AM 55.4 °F 55.4 °F 100% 29.77 in 7.0 mi NW 13.8 mph 18.4 mph N/A   Mostly Cloudy
11:35 AM 59.0 °F 59.0 °F 100% 29.77 in 10.0 mi NW 11.5 mph 19.6 mph N/A   Scattered Clouds
11:55 AM 60.8 °F 57.2 °F 88% 29.77 in 10.0 mi NW 18.4 mph 24.2 mph N/A   Clear
12:15 PM 62.6 °F 55.4 °F 77% 29.78 in 10.0 mi NW 19.6 mph 24.2 mph N/A   Clear
12:35 PM 62.6 °F 53.6 °F 72% 29.79 in 10.0 mi NNW 11.5 mph 21.9 mph N/A   Clear
12:55 PM 64.4 °F 53.6 °F 68% 29.79 in 10.0 mi North 15.0 mph 20.7 mph N/A   Clear
1:15 PM 68.0 °F 51.8 °F 56% 29.79 in 10.0 mi NNW 24.2 mph 28.8 mph N/A   Scattered Clouds
1:35 PM 68.0 °F 46.4 °F 46% 29.79 in 10.0 mi NNW 21.9 mph 29.9 mph N/A   Scattered Clouds
2:15 PM 69.8 °F 46.4 °F 43% 29.79 in 10.0 mi NNW 21.9 mph 28.8 mph N/A   Clear
2:35 PM 69.8 °F 46.4 °F 43% 29.79 in 10.0 mi NNW 21.9 mph 32.2 mph N/A   Clear
2:55 PM 69.8 °F 44.6 °F 40% 29.78 in 10.0 mi NNW 17.3 mph 26.5 mph N/A   Clear
3:15 PM 69.8 °F 44.6 °F 40% 29.79 in 10.0 mi North 17.3 mph 25.3 mph N/A   Clear
3:35 PM 69.8 °F 44.6 °F 40% 29.79 in 10.0 mi NNW 19.6 mph 29.9 mph N/A   Scattered Clouds
3:55 PM 69.8 °F 44.6 °F 40% 29.79 in 10.0 mi NNW 23.0 mph 29.9 mph N/A   Clear
4:15 PM 68.0 °F 44.6 °F 43% 29.79 in 10.0 mi NW 21.9 mph 27.6 mph N/A   Clear
4:35 PM 68.0 °F 44.6 °F 43% 29.80 in 10.0 mi NW 18.4 mph 25.3 mph N/A   Clear
4:55 PM 64.4 °F 42.8 °F 45% 29.81 in 10.0 mi NW 16.1 mph 25.3 mph N/A   Mostly Cloudy
5:15 PM 68.0 °F 42.8 °F 40% 29.81 in 10.0 mi NNW 20.7 mph 27.6 mph N/A   Mostly Cloudy
5:35 PM 66.2 °F 42.8 °F 43% 29.82 in 10.0 mi NNW 18.4 mph 25.3 mph N/A   Scattered Clouds
5:55 PM 64.4 °F 42.8 °F 45% 29.82 in 10.0 mi NNW 18.4 mph 26.5 mph N/A   Clear
6:15 PM 62.6 °F 44.6 °F 52% 29.83 in 10.0 mi NNW 12.7 mph 21.9 mph N/A   Scattered Clouds
6:35 PM 62.6 °F 42.8 °F 48% 29.84 in 10.0 mi NW 13.8 mph 20.7 mph N/A   Scattered Clouds
6:55 PM 62.6 °F 42.8 °F 48% 29.84 in 10.0 mi NNW 10.4 mph 16.1 mph N/A   Mostly Cloudy
7:15 PM 60.8 °F 44.6 °F 55% 29.85 in 10.0 mi NNW 9.2 mph - N/A   Overcast
7:35 PM 59.0 °F 44.6 °F 59% 29.86 in 10.0 mi NW 6.9 mph - N/A   Mostly Cloudy
7:55 PM 57.2 °F 42.8 °F 59% 29.86 in 10.0 mi NW 8.1 mph - N/A   Clear
8:15 PM 55.4 °F 42.8 °F 63% 29.87 in 10.0 mi NW 8.1 mph - N/A   Scattered Clouds
8:35 PM 57.2 °F 42.8 °F 59% 29.88 in 10.0 mi NW 9.2 mph - N/A   Mostly Cloudy
8:55 PM 57.2 °F 42.8 °F 59% 29.88 in 10.0 mi NW 9.2 mph - N/A   Mostly Cloudy
9:15 PM 55.4 °F 42.8 °F 63% 29.89 in 10.0 mi NW 8.1 mph - N/A   Mostly Cloudy
9:35 PM 55.4 °F 42.8 °F 63% 29.89 in 10.0 mi WNW 5.8 mph - N/A   Scattered Clouds
9:55 PM 51.8 °F 42.8 °F 71% 29.89 in 10.0 mi West 5.8 mph - N/A   Clear
10:15 PM 50.0 °F 42.8 °F 76% 29.89 in 10.0 mi WNW 5.8 mph - N/A   Clear
10:35 PM 51.8 °F 42.8 °F 71% 29.89 in 10.0 mi WNW 6.9 mph - N/A   Clear
10:55 PM 51.8 °F 42.8 °F 71% 29.89 in 10.0 mi WNW 8.1 mph - N/A   Clear
11:15 PM 51.8 °F 41.0 °F 67% 29.89 in 10.0 mi WNW 8.1 mph - N/A   Clear
11:35 PM 51.8 °F 41.0 °F 67% 29.90 in 10.0 mi WNW 10.4 mph 16.1 mph N/A   Clear